Time,TemperatureF,DewpointF,PressureIn,WindDirection,WindDirectionDegrees,WindSpeedMPH,WindSpeedGustMPH,Humidity,HourlyPrecipIn,Conditions,Clouds,dailyrainin,SoftwareType,DateUTC
2013-05-25 00:02:00,48.0,47.0,29.86,SW,222,0.0,0.0,97,0.02,,,1.47,,2013-05-25 04:02:00,
2013-05-25 00:13:00,48.0,47.0,29.86,SW,222,0.0,0.0,97,0.02,,,1.47,,2013-05-25 04:13:00,
2013-05-25 00:23:00,48.0,47.0,29.85,SW,226,0.0,0.0,97,0.01,,,1.30,,2013-05-25 04:23:00,
2013-05-25 00:33:00,48.0,47.0,29.85,SW,221,0.0,0.0,98,0.01,,,1.30,,2013-05-25 04:33:00,
2013-05-25 00:43:00,48.0,47.0,29.85,SW,221,0.0,0.0,98,0.01,,,1.30,,2013-05-25 04:43:00,
2013-05-25 00:53:00,48.0,47.0,29.84,SW,219,0.0,0.0,98,0.02,,,1.31,,2013-05-25 04:53:00,
2013-05-25 01:02:00,48.0,47.0,29.84,SW,218,0.0,0.0,98,0.01,,,1.31,,2013-05-25 05:02:00,
2013-05-25 01:12:00,48.0,47.0,29.84,SW,218,0.0,0.0,98,0.01,,,1.31,,2013-05-25 05:12:00,
2013-05-25 01:22:00,48.0,47.0,29.85,SW,219,0.0,0.0,98,0.01,,,1.19,,2013-05-25 05:22:00,
2013-05-25 01:32:00,48.0,47.0,29.85,SW,217,0.0,0.0,98,0.02,,,1.20,,2013-05-25 05:32:00,
2013-05-25 01:43:00,48.0,47.0,29.85,SW,217,0.0,0.0,98,0.02,,,1.20,,2013-05-25 05:43:00,
2013-05-25 01:52:00,48.0,47.0,29.83,SW,219,0.0,0.0,98,0.02,,,1.21,,2013-05-25 05:52:00,
2013-05-25 02:02:00,48.0,47.0,29.83,SW,219,0.0,0.0,98,0.02,,,1.21,,2013-05-25 06:02:00,
2013-05-25 02:12:00,48.0,47.0,29.83,SW,219,0.0,0.0,98,0.02,,,1.21,,2013-05-25 06:12:00,
2013-05-25 02:22:00,48.0,47.0,29.83,SW,218,0.0,0.0,98,0.03,,,1.01,,2013-05-25 06:22:00,
2013-05-25 02:32:00,48.0,47.0,29.84,SW,217,0.0,0.0,98,0.02,,,1.01,,2013-05-25 06:32:00,
2013-05-25 02:42:00,48.0,47.0,29.84,SW,217,0.0,0.0,98,0.02,,,1.01,,2013-05-25 06:42:00,
2013-05-25 02:52:00,48.0,47.0,29.83,SW,221,0.0,0.0,98,0.03,,,1.03,,2013-05-25 06:52:00,
2013-05-25 03:01:00,48.0,47.0,29.82,SW,220,0.0,0.0,98,0.04,,,1.04,,2013-05-25 07:01:00,
2013-05-25 03:11:00,48.0,47.0,29.82,SW,220,0.0,0.0,98,0.04,,,1.04,,2013-05-25 07:11:00,
2013-05-25 03:22:00,48.0,47.0,29.82,SW,219,0.0,0.0,98,0.05,,,0.77,,2013-05-25 07:22:00,
2013-05-25 03:32:00,48.0,47.0,29.82,SW,219,0.0,0.0,98,0.06,,,0.78,,2013-05-25 07:32:00,
2013-05-25 03:42:00,48.0,47.0,29.82,SW,219,0.0,0.0,98,0.06,,,0.78,,2013-05-25 07:42:00,
2013-05-25 03:52:00,48.0,47.0,29.82,SW,220,0.0,0.0,98,0.04,,,0.78,,2013-05-25 07:52:00,
2013-05-25 04:02:00,48.0,47.0,29.81,SW,217,0.0,0.0,98,0.04,,,0.79,,2013-05-25 08:02:00,
2013-05-25 04:11:00,48.0,47.0,29.81,SW,217,0.0,0.0,98,0.04,,,0.79,,2013-05-25 08:11:00,
2013-05-25 04:22:00,48.0,48.0,29.82,SW,214,0.0,0.0,99,0.03,,,0.39,,2013-05-25 08:22:00,
2013-05-25 04:32:00,48.0,47.0,29.81,SW,217,0.0,0.0,98,0.03,,,0.40,,2013-05-25 08:32:00,
2013-05-25 04:42:00,48.0,47.0,29.81,SW,217,0.0,0.0,98,0.03,,,0.40,,2013-05-25 08:42:00,
2013-05-25 04:52:00,47.0,46.0,29.80,SW,220,0.0,0.0,98,0.06,,,0.43,,2013-05-25 08:52:00,
2013-05-25 05:02:00,47.0,46.0,29.80,SW,222,0.0,0.0,98,0.05,,,0.43,,2013-05-25 09:02:00,
2013-05-25 05:11:00,47.0,46.0,29.80,SW,222,0.0,0.0,98,0.05,,,0.43,,2013-05-25 09:11:00,
2013-05-25 05:21:00,47.0,46.0,29.80,SW,225,0.0,0.0,98,0.07,,,0.37,,2013-05-25 09:21:00,
2013-05-25 05:33:00,47.0,46.0,29.80,SW,221,0.0,0.0,98,0.12,,,0.43,,2013-05-25 09:33:00,
2013-05-25 05:43:00,47.0,46.0,29.80,SW,221,0.0,0.0,98,0.12,,,0.43,,2013-05-25 09:43:00,
2013-05-25 05:53:00,47.0,47.0,29.79,SW,224,0.0,0.0,99,0.12,,,0.46,,2013-05-25 09:53:00,
2013-05-25 06:03:00,47.0,47.0,29.80,SW,224,0.0,0.0,99,0.12,,,0.46,,2013-05-25 10:03:00,
2013-05-25 06:12:00,47.0,47.0,29.80,SW,224,0.0,0.0,99,0.12,,,0.46,,2013-05-25 10:12:00,
2013-05-25 06:23:00,47.0,47.0,29.80,SW,221,0.0,0.0,99,0.09,,,0.43,,2013-05-25 10:23:00,
2013-05-25 06:33:00,47.0,47.0,29.80,SW,219,0.0,0.0,99,0.04,,,0.44,,2013-05-25 10:33:00,
2013-05-25 06:42:00,47.0,47.0,29.80,SW,219,0.0,0.0,99,0.04,,,0.44,,2013-05-25 10:42:00,
2013-05-25 06:52:00,47.0,47.0,29.80,SW,219,0.0,0.0,99,0.03,,,0.46,,2013-05-25 10:52:00,
2013-05-25 07:02:00,47.0,47.0,29.81,SW,221,0.0,0.0,99,0.03,,,0.46,,2013-05-25 11:02:00,
2013-05-25 07:12:00,47.0,47.0,29.81,SW,221,0.0,0.0,99,0.03,,,0.46,,2013-05-25 11:12:00,
2013-05-25 07:22:00,47.0,46.0,29.80,SW,219,0.0,0.0,98,0.04,,,0.47,,2013-05-25 11:22:00,
2013-05-25 07:32:00,47.0,46.0,29.80,SW,219,0.0,0.0,98,0.03,,,0.47,,2013-05-25 11:32:00,
2013-05-25 07:42:00,47.0,46.0,29.80,SW,219,0.0,0.0,98,0.03,,,0.47,,2013-05-25 11:42:00,
2013-05-25 07:52:00,47.0,47.0,29.80,SW,220,0.0,0.0,99,0.02,,,0.48,,2013-05-25 11:52:00,
2013-05-25 08:01:00,47.0,46.0,29.80,SW,218,0.0,0.0,98,0.01,,,0.48,,2013-05-25 12:01:00,
2013-05-25 08:12:00,47.0,46.0,29.80,SW,218,0.0,0.0,98,0.01,,,0.48,,2013-05-25 12:12:00,
2013-05-25 08:22:00,47.0,47.0,29.80,SW,219,0.0,0.0,99,0.02,,,0.49,,2013-05-25 12:22:00,
2013-05-25 08:32:00,47.0,46.0,29.80,SW,219,0.0,0.0,98,0.02,,,0.49,,2013-05-25 12:32:00,
2013-05-25 08:42:00,47.0,46.0,29.80,SW,219,0.0,0.0,98,0.02,,,0.49,,2013-05-25 12:42:00,
2013-05-25 08:52:00,47.0,46.0,29.79,SW,222,0.0,0.0,98,0.02,,,0.50,,2013-05-25 12:52:00,
2013-05-25 09:02:00,47.0,46.0,29.79,SW,224,0.0,0.0,98,0.02,,,0.50,,2013-05-25 13:02:00,
2013-05-25 09:11:00,47.0,46.0,29.79,SW,224,0.0,0.0,98,0.02,,,0.50,,2013-05-25 13:11:00,
2013-05-25 09:22:00,48.0,47.0,29.79,SW,219,0.0,0.0,98,0.01,,,0.49,,2013-05-25 13:22:00,
2013-05-25 09:32:00,48.0,47.0,29.79,SW,220,0.0,0.0,98,0.02,,,0.50,,2013-05-25 13:32:00,
2013-05-25 09:42:00,48.0,47.0,29.79,SW,220,0.0,0.0,98,0.02,,,0.50,,2013-05-25 13:42:00,
2013-05-25 09:52:00,48.0,47.0,29.79,SW,219,0.0,0.0,98,0.01,,,0.50,,2013-05-25 13:52:00,
2013-05-25 10:02:00,48.0,47.0,29.78,SW,221,0.0,0.0,98,0.01,,,0.50,,2013-05-25 14:02:00,
2013-05-25 10:11:00,48.0,47.0,29.78,SW,221,0.0,0.0,98,0.01,,,0.50,,2013-05-25 14:11:00,
2013-05-25 10:22:00,49.0,48.0,29.78,SW,220,0.0,0.0,98,0.01,,,0.50,,2013-05-25 14:22:00,
2013-05-25 10:32:00,49.0,48.0,29.78,SW,219,0.0,0.0,98,0.00,,,0.50,,2013-05-25 14:32:00,
2013-05-25 10:42:00,49.0,48.0,29.78,SW,219,0.0,0.0,98,0.00,,,0.50,,2013-05-25 14:42:00,
2013-05-25 10:52:00,49.0,48.0,29.78,SW,220,0.0,0.0,97,0.01,,,0.51,,2013-05-25 14:52:00,
2013-05-25 11:01:00,49.0,48.0,29.78,SW,224,0.0,0.0,97,0.01,,,0.51,,2013-05-25 15:01:00,
2013-05-25 11:12:00,49.0,48.0,29.78,SW,224,0.0,0.0,97,0.01,,,0.51,,2013-05-25 15:12:00,
2013-05-25 11:22:00,49.0,48.0,29.77,SW,219,0.0,0.0,98,0.02,,,0.52,,2013-05-25 15:22:00,
2013-05-25 11:33:00,49.0,48.0,29.76,SW,221,0.0,0.0,97,0.02,,,0.52,,2013-05-25 15:33:00,
2013-05-25 11:43:00,49.0,48.0,29.76,SW,221,0.0,0.0,97,0.02,,,0.52,,2013-05-25 15:43:00,
2013-05-25 11:53:00,49.0,48.0,29.77,SW,221,0.0,0.0,97,0.03,,,0.54,,2013-05-25 15:53:00,
2013-05-25 12:03:00,49.0,48.0,29.76,SW,218,0.0,0.0,97,0.04,,,0.55,,2013-05-25 16:03:00,
2013-05-25 12:12:00,49.0,48.0,29.76,SW,218,0.0,0.0,97,0.04,,,0.55,,2013-05-25 16:12:00,
2013-05-25 12:23:00,50.0,49.0,29.75,SW,219,0.0,0.0,97,0.04,,,0.56,,2013-05-25 16:23:00,
2013-05-25 12:32:00,50.0,49.0,29.75,SW,224,0.0,0.0,96,0.05,,,0.57,,2013-05-25 16:32:00,
2013-05-25 12:42:00,50.0,49.0,29.75,SW,224,0.0,0.0,96,0.05,,,0.57,,2013-05-25 16:42:00,
2013-05-25 12:52:00,50.0,49.0,29.75,SW,221,0.0,0.0,97,0.03,,,0.57,,2013-05-25 16:52:00,
2013-05-25 13:03:00,50.0,49.0,29.75,SW,222,0.0,0.0,97,0.03,,,0.58,,2013-05-25 17:03:00,
2013-05-25 13:11:00,50.0,49.0,29.75,SW,222,0.0,0.0,97,0.03,,,0.58,,2013-05-25 17:11:00,
2013-05-25 13:22:00,50.0,49.0,29.75,SW,221,0.0,0.0,97,0.02,,,0.58,,2013-05-25 17:22:00,
2013-05-25 13:32:00,50.0,49.0,29.74,SW,219,0.0,0.0,96,0.01,,,0.58,,2013-05-25 17:32:00,
2013-05-25 13:42:00,50.0,49.0,29.74,SW,219,0.0,0.0,96,0.01,,,0.58,,2013-05-25 17:42:00,
2013-05-25 13:52:00,50.0,49.0,29.74,SW,226,0.0,0.0,96,0.02,,,0.59,,2013-05-25 17:52:00,
2013-05-25 14:02:00,50.0,49.0,29.75,SW,222,0.0,0.0,96,0.01,,,0.59,,2013-05-25 18:02:00,
2013-05-25 14:11:00,50.0,49.0,29.75,SW,222,0.0,0.0,96,0.01,,,0.59,,2013-05-25 18:11:00,
2013-05-25 14:22:00,50.0,49.0,29.75,WSW,245,0.0,0.0,96,0.02,,,0.60,,2013-05-25 18:22:00,
2013-05-25 14:32:00,49.0,48.0,29.75,WSW,246,0.0,0.0,96,0.02,,,0.60,,2013-05-25 18:32:00,
2013-05-25 14:42:00,49.0,48.0,29.75,WSW,246,0.0,0.0,96,0.02,,,0.60,,2013-05-25 18:42:00,
2013-05-25 14:52:00,49.0,48.0,29.75,WSW,246,0.0,0.0,96,0.03,,,0.62,,2013-05-25 18:52:00,
2013-05-25 15:02:00,49.0,48.0,29.75,WSW,246,0.0,0.0,96,0.04,,,0.63,,2013-05-25 19:02:00,
2013-05-25 15:11:00,49.0,48.0,29.75,WSW,246,0.0,0.0,96,0.04,,,0.63,,2013-05-25 19:11:00,
2013-05-25 15:22:00,48.0,47.0,29.74,WSW,248,0.0,0.0,96,0.04,,,0.63,,2013-05-25 19:22:00,
2013-05-25 15:32:00,48.0,47.0,29.74,WSW,248,0.0,0.0,96,0.05,,,0.64,,2013-05-25 19:32:00,
2013-05-25 15:42:00,48.0,47.0,29.74,WSW,248,0.0,0.0,96,0.05,,,0.64,,2013-05-25 19:42:00,
2013-05-25 15:52:00,48.0,47.0,29.74,WNW,283,0.0,0.0,96,0.03,,,0.64,,2013-05-25 19:52:00,
2013-05-25 16:02:00,47.0,46.0,29.74,WSW,246,0.0,0.0,96,0.03,,,0.65,,2013-05-25 20:02:00,
2013-05-25 16:11:00,47.0,46.0,29.74,WSW,246,0.0,0.0,96,0.03,,,0.65,,2013-05-25 20:11:00,
2013-05-25 16:22:00,46.0,45.0,29.74,ESE,115,0.0,0.0,97,0.02,,,0.65,,2013-05-25 20:22:00,
2013-05-25 16:32:00,46.0,45.0,29.75,SE,135,0.0,0.0,97,0.01,,,0.65,,2013-05-25 20:32:00,
2013-05-25 16:42:00,46.0,45.0,29.75,SE,135,0.0,0.0,97,0.01,,,0.65,,2013-05-25 20:42:00,
2013-05-25 16:52:00,46.0,45.0,29.75,East,80,0.0,0.0,96,0.02,,,0.66,,2013-05-25 20:52:00,
2013-05-25 17:02:00,45.0,44.0,29.75,ENE,63,0.0,0.0,96,0.01,,,0.66,,2013-05-25 21:02:00,
2013-05-25 17:11:00,45.0,44.0,29.75,ENE,63,0.0,0.0,96,0.01,,,0.66,,2013-05-25 21:11:00,
2013-05-25 17:22:00,45.0,44.0,29.75,NE,43,0.0,0.0,97,0.01,,,0.66,,2013-05-25 21:22:00,
2013-05-25 17:33:00,44.0,43.0,29.75,ENE,65,0.0,0.0,97,0.01,,,0.66,,2013-05-25 21:33:00,
2013-05-25 17:43:00,44.0,43.0,29.75,ENE,65,0.0,0.0,97,0.01,,,0.66,,2013-05-25 21:43:00,
2013-05-25 17:53:00,44.0,43.0,29.75,ENE,59,0.0,0.0,97,0.01,,,0.67,,2013-05-25 21:53:00,
2013-05-25 18:03:00,44.0,43.0,29.75,ENE,77,0.0,0.0,97,0.01,,,0.67,,2013-05-25 22:03:00,
2013-05-25 18:13:00,44.0,43.0,29.75,ENE,77,0.0,0.0,97,0.01,,,0.67,,2013-05-25 22:13:00,
2013-05-25 18:23:00,43.0,42.0,29.76,East,82,0.0,0.0,97,0.01,,,0.67,,2013-05-25 22:23:00,
2013-05-25 18:32:00,43.0,42.0,29.75,ENE,77,0.0,0.0,97,0.01,,,0.67,,2013-05-25 22:32:00,
2013-05-25 18:42:00,43.0,42.0,29.75,ENE,77,0.0,0.0,97,0.01,,,0.67,,2013-05-25 22:42:00,
2013-05-25 18:52:00,43.0,42.0,29.76,East,86,0.0,0.0,97,0.01,,,0.68,,2013-05-25 22:52:00,
2013-05-25 19:02:00,43.0,42.0,29.76,East,81,0.0,0.0,97,0.01,,,0.68,,2013-05-25 23:02:00,
2013-05-25 19:12:00,43.0,42.0,29.76,East,81,0.0,0.0,97,0.01,,,0.68,,2013-05-25 23:12:00,
2013-05-25 19:22:00,42.0,41.0,29.77,NE,49,0.0,0.0,97,0.01,,,0.68,,2013-05-25 23:22:00,
2013-05-25 19:32:00,42.0,41.0,29.77,East,80,0.0,0.0,97,0.01,,,0.68,,2013-05-25 23:32:00,
2013-05-25 19:42:00,42.0,41.0,29.77,East,80,0.0,0.0,97,0.01,,,0.68,,2013-05-25 23:42:00,
2013-05-25 19:52:00,42.0,41.0,29.77,East,81,0.0,0.0,97,0.00,,,0.68,,2013-05-25 23:52:00,
2013-05-25 20:02:00,42.0,41.0,29.77,ENE,70,0.0,0.0,97,0.00,,,0.68,,2013-05-26 00:02:00,
2013-05-25 20:11:00,42.0,41.0,29.77,ENE,70,0.0,0.0,97,0.00,,,0.68,,2013-05-26 00:11:00,
2013-05-25 20:22:00,42.0,41.0,29.77,East,80,0.0,0.0,96,0.00,,,0.68,,2013-05-26 00:22:00,
2013-05-25 20:32:00,42.0,41.0,29.77,ENE,77,0.0,0.0,96,0.00,,,0.68,,2013-05-26 00:32:00,
2013-05-25 20:42:00,42.0,41.0,29.77,ENE,77,0.0,0.0,96,0.00,,,0.68,,2013-05-26 00:42:00,
2013-05-25 20:53:00,42.0,41.0,29.77,ENE,77,0.0,0.0,95,0.00,,,0.68,,2013-05-26 00:53:00,
2013-05-25 21:01:00,42.0,40.0,29.77,ENE,77,0.0,0.0,94,0.00,,,0.68,,2013-05-26 01:01:00,
2013-05-25 21:11:00,42.0,40.0,29.77,ENE,77,0.0,0.0,94,0.00,,,0.68,,2013-05-26 01:11:00,
2013-05-25 21:21:00,42.0,40.0,29.77,ENE,67,0.0,0.0,93,0.00,,,0.67,,2013-05-26 01:21:00,
2013-05-25 21:32:00,42.0,40.0,29.76,NE,56,0.0,0.0,93,0.00,,,0.67,,2013-05-26 01:32:00,
2013-05-25 21:42:00,42.0,40.0,29.76,NE,56,0.0,0.0,93,0.00,,,0.67,,2013-05-26 01:42:00,
2013-05-25 21:53:00,42.0,40.0,29.77,ENE,67,0.0,0.0,93,0.00,,,0.67,,2013-05-26 01:53:00,
2013-05-25 22:02:00,42.0,40.0,29.77,ENE,75,0.0,0.0,92,0.00,,,0.67,,2013-05-26 02:02:00,
2013-05-25 22:11:00,42.0,40.0,29.77,ENE,75,0.0,0.0,92,0.00,,,0.67,,2013-05-26 02:11:00,
2013-05-25 22:21:00,42.0,40.0,29.77,ENE,63,0.0,0.0,92,0.00,,,0.59,,2013-05-26 02:21:00,
2013-05-25 22:32:00,41.0,39.0,29.77,NNE,25,0.0,0.0,91,0.00,,,0.59,,2013-05-26 02:32:00,
2013-05-25 22:42:00,41.0,39.0,29.77,NNE,25,0.0,0.0,91,0.00,,,0.59,,2013-05-26 02:42:00,
2013-05-25 22:52:00,41.0,39.0,29.77,NW,305,0.0,0.0,92,0.00,,,0.59,,2013-05-26 02:52:00,
2013-05-25 23:01:00,41.0,39.0,29.77,NW,320,0.0,0.0,93,0.00,,,0.59,,2013-05-26 03:01:00,
2013-05-25 23:11:00,41.0,39.0,29.77,NW,320,0.0,0.0,93,0.00,,,0.59,,2013-05-26 03:11:00,
2013-05-25 23:22:00,40.0,38.0,29.77,NNE,31,0.0,0.0,93,0.00,,,0.57,,2013-05-26 03:22:00,
2013-05-25 23:33:00,40.0,38.0,29.77,NNE,32,0.0,0.0,94,0.00,,,0.57,,2013-05-26 03:33:00,
2013-05-25 23:43:00,40.0,38.0,29.77,NNE,32,0.0,0.0,94,0.00,,,0.57,,2013-05-26 03:43:00,
2013-05-25 23:53:00,39.0,38.0,29.76,ENE,77,0.0,0.0,95,0.00,,,0.57,,2013-05-26 03:53:00,